Regional Weather Roundup
Issued by NWS Cleveland, OH

Home | Current Version | Previous Version | Text Only | Print | Product List | Glossary Off
Versions: 1 2 3 4 5 6 7 8 9 10 11 12 13 14 15 16 17 18 19 20 21 22 23 24 25 26 27 28 29 30 31 32 33 34 35 36 37 38 39 40 41 42 43 44 45 46 47 48 49 50

000
ASUS41 KCLE 230400
RWRCLE
OHIO REGIONAL WEATHER ROUNDUP
NATIONAL WEATHER SERVICE WILMINGTON, OH
1200 AM EDT WED JUL 23 2014

NOTE: "FAIR" INDICATES FEW OR NO CLOUDS BELOW 12,000 FEET WITH NO
SIGNIFICANT WEATHER AND/OR OBSTRUCTIONS TO VISIBILITY.

OHZ001>008-015>018-024>027-034-035-043-044-230500-
   NORTHWEST OHIO

CITY           SKY/WX    TMP DP  RH WIND       PRES   REMARKS
DEFIANCE       PTCLDY    77  66  68 CALM      29.99R
FINDLAY        CLEAR     74  66  76 SW8       29.99R
TOLEDO EXPRESS CLOUDY    78  67  68 SW6       29.97S
TOLEDO METCALF CLEAR     78  65  63 SW8       29.97S
LIMA           CLEAR     77  67  71 SW8       30.02R
$$

OHZ009>014-019>023-028>033-038-089-230500-
   NORTHEAST OHIO

CITY           SKY/WX    TMP DP  RH WIND       PRES   REMARKS
CLE-HOPKINS    PTCLDY    77  67  71 S8        30.00F
CLE-LAKEFRONT  CLEAR     82  67  60 SW10      29.97S
CUY CO. ARPT   NOT AVBL
LORAIN-ELYRIA  CLEAR     77  68  73 SW6       30.00S
ASHTABULA      CLEAR     74  68  81 S5        30.00S
AKRON-CANTON   MOCLDY    77  69  76 S7        30.02F
WOOSTER        NOT AVBL
MANSFIELD      CLEAR     72  68  87 SW6       30.03F
YOUNGSTOWN     CLEAR     75  68  78 SW5       30.02S
$$

OHZ042-051>053-060>062-070>072-077>081-230500-
  SOUTHWEST OHIO

CITY           SKY/WX    TMP DP  RH WIND       PRES   REMARKS
CINC-COVINGTON CLEAR     73  68  84 S3        30.05F
CINC-LUNKEN    CLEAR     72  69  90 CALM      30.04S
HAMILTON       CLEAR     71  69  93 CALM      30.04F
DAYTON         NOT AVBL
WRIGHT-PAT AFB CLEAR     72  68  87 S3        30.03F
DAYTON GENERAL CLEAR     75  68  78 CALM      30.04F
WILMINGTON     CLEAR     72  69  90 CALM      30.05F
$$

OHZ036-037-039>041-045>050-054>059-063>069-073>076-082>088-230500-
  CENTRAL AND SOUTHEAST OHIO

CITY           SKY/WX    TMP DP  RH WIND       PRES   REMARKS
COLUMBUS       CLEAR     81  70  69 S3        30.02S
OSU AIRPORT    CLEAR     78  70  76 SW6       30.03S
BOLTON FIELD   NOT AVBL
RICKENBACK AFB NOT AVBL
NEWARK         CLEAR     72  70  93 CALM      30.02F FOG
MARION         CLEAR     73  66  78 SW6       30.02F
LANCASTER      CLEAR     71  69  93 CALM      30.03F
ZANESVILLE     CLEAR     75  71  87 SW3       30.03F
NEW PHILLY     CLEAR     72  71  97 SE5       30.03
$$


USA.gov is the U.S. government's official web portal to all federal, state and local government web resources and services.